Total_Precipitation_Accumulation
0.02 0.03 0.07 0.17 0.21 0.27 0.42 0.40 0.25 0.19 0.18 0.17 0.18 0.19 0.21 0.24 0.33 0.50 0.70 0.82 0.93 0.98 1.00 1.05 1.09 1.16 1.19 1.12 1.17 1.22 1.32 1.44 1.31 1.07 1.11 1.22 1.08 0.82 0.65 0.57 0.49 0.49 0.47
0.02 0.02 0.05 0.15 0.20 0.23 0.31 0.34 0.26 0.21 0.18 0.16 0.15 0.14 0.13 0.16 0.25 0.42 0.59 0.75 0.90 1.01 1.04 1.05 0.96 0.97 1.07 1.12 1.15 1.19 1.22 1.35 1.29 1.20 1.16 1.25 1.23 1.06 0.87 0.66 0.49 0.42 0.42
0.02 0.03 0.05 0.07 0.08 0.10 0.12 0.16 0.20 0.23 0.24 0.21 0.19 0.18 0.22 0.28 0.36 0.45 0.52 0.64 0.80 0.89 0.92 0.91 0.87 0.91 0.92 1.01 1.08 1.10 1.11 1.13 1.19 1.21 1.21 1.32 1.34 1.18 0.95 0.75 0.57 0.50 0.46
0.02 0.03 0.04 0.05 0.04 0.05 0.08 0.12 0.18 0.21 0.23 0.21 0.21 0.26 0.32 0.39 0.43 0.43 0.46 0.54 0.60 0.67 0.72 0.71 0.70 0.76 0.81 0.87 0.90 0.93 0.98 1.04 1.09 1.11 1.19 1.32 1.35 1.34 1.12 0.88 0.68 0.55 0.50
0.04 0.09 0.09 0.07 0.06 0.06 0.08 0.10 0.13 0.14 0.14 0.18 0.23 0.28 0.34 0.38 0.36 0.39 0.44 0.41 0.47 0.48 0.46 0.49 0.51 0.55 0.62 0.71 0.73 0.77 0.86 0.92 0.97 1.07 1.15 1.31 1.34 1.37 1.21 0.98 0.82 0.69 0.57
0.08 0.14 0.17 0.14 0.08 0.06 0.06 0.08 0.10 0.11 0.14 0.19 0.23 0.26 0.28 0.25 0.25 0.26 0.27 0.27 0.31 0.37 0.38 0.37 0.35 0.41 0.46 0.51 0.56 0.62 0.71 0.79 0.88 0.99 1.09 1.21 1.30 1.27 1.21 1.13 1.00 0.81 0.62
0.13 0.11 0.18 0.20 0.10 0.06 0.07 0.09 0.13 0.14 0.18 0.23 0.26 0.27 0.29 0.31 0.19 0.13 0.11 0.16 0.24 0.31 0.37 0.41 0.30 0.24 0.32 0.41 0.48 0.49 0.52 0.59 0.71 0.86 0.96 1.08 1.25 1.30 1.31 1.23 1.15 1.00 0.77
0.16 0.13 0.19 0.21 0.13 0.13 0.15 0.17 0.20 0.24 0.28 0.32 0.32 0.33 0.37 0.35 0.22 0.12 0.09 0.12 0.20 0.28 0.34 0.39 0.37 0.32 0.32 0.37 0.47 0.51 0.48 0.46 0.52 0.63 0.73 0.94 1.27 1.48 1.48 1.46 1.42 1.33 1.10
0.15 0.14 0.21 0.28 0.24 0.24 0.26 0.29 0.34 0.38 0.39 0.40 0.42 0.42 0.45 0.44 0.31 0.17 0.14 0.18 0.27 0.31 0.35 0.38 0.38 0.35 0.28 0.24 0.35 0.44 0.48 0.48 0.47 0.56 0.66 0.83 1.06 1.39 1.55 1.56 1.60 1.42 1.20
0.16 0.18 0.24 0.37 0.42 0.40 0.39 0.42 0.44 0.52 0.55 0.55 0.52 0.51 0.53 0.57 0.46 0.24 0.19 0.26 0.37 0.41 0.48 0.48 0.40 0.36 0.30 0.21 0.29 0.39 0.43 0.46 0.49 0.51 0.56 0.62 0.77 1.04 1.29 1.31 1.31 1.33 1.12
0.20 0.24 0.30 0.44 0.58 0.57 0.56 0.56 0.58 0.62 0.68 0.74 0.74 0.71 0.70 0.67 0.58 0.31 0.22 0.32 0.43 0.51 0.51 0.53 0.50 0.39 0.29 0.22 0.24 0.33 0.36 0.42 0.54 0.60 0.64 0.70 0.78 0.90 1.05 1.14 1.19 1.19 1.10
0.28 0.32 0.37 0.51 0.55 0.59 0.67 0.73 0.81 0.85 0.86 0.88 0.92 0.88 0.87 0.83 0.65 0.43 0.25 0.28 0.42 0.60 0.63 0.62 0.62 0.50 0.37 0.30 0.24 0.23 0.26 0.31 0.45 0.58 0.64 0.67 0.71 0.75 0.85 1.00 1.14 1.18 1.15
0.38 0.39 0.44 0.52 0.65 0.80 0.85 0.83 0.89 0.98 1.02 1.04 1.04 0.99 0.96 1.02 0.87 0.51 0.35 0.31 0.39 0.59 0.76 0.80 0.70 0.56 0.48 0.40 0.34 0.29 0.27 0.29 0.39 0.47 0.54 0.57 0.62 0.70 0.83 1.01 1.18 1.32 1.28
0.46 0.44 0.48 0.57 0.67 0.82 0.97 0.99 1.05 1.08 1.09 1.14 1.15 1.07 1.06 1.15 1.10 0.80 0.57 0.46 0.45 0.55 0.69 0.74 0.70 0.67 0.61 0.54 0.45 0.37 0.30 0.32 0.38 0.42 0.50 0.60 0.70 0.85 0.92 0.94 1.00 1.14 1.27
0.53 0.47 0.48 0.56 0.66 0.74 0.87 0.99 1.02 1.04 0.98 1.00 1.05 1.01 1.02 1.13 1.07 0.83 0.71 0.66 0.62 0.64 0.71 0.80 0.83 0.84 0.75 0.67 0.59 0.53 0.49 0.47 0.44 0.48 0.57 0.66 0.71 0.78 0.88 0.92 0.93 0.94 0.97
0.71 0.60 0.54 0.54 0.62 0.70 0.79 0.83 0.75 0.73 0.71 0.70 0.74 0.70 0.72 0.89 0.91 0.72 0.60 0.62 0.62 0.60 0.68 0.78 0.84 0.88 0.83 0.75 0.69 0.64 0.62 0.58 0.54 0.56 0.60 0.65 0.70 0.72 0.78 0.90 0.95 0.91 0.84
0.93 0.77 0.66 0.60 0.61 0.65 0.75 0.83 0.86 0.76 0.68 0.62 0.59 0.52 0.50 0.71 0.82 0.70 0.59 0.55 0.52 0.54 0.62 0.70 0.73 0.81 0.84 0.77 0.70 0.66 0.64 0.63 0.64 0.64 0.62 0.64 0.69 0.73 0.77 0.83 0.90 0.93 0.87
1.01 0.89 0.75 0.71 0.69 0.67 0.71 0.79 0.88 0.96 0.94 0.77 0.60 0.50 0.44 0.58 0.71 0.67 0.58 0.51 0.50 0.52 0.58 0.64 0.70 0.75 0.81 0.77 0.69 0.67 0.71 0.75 0.71 0.69 0.68 0.66 0.67 0.69 0.73 0.77 0.81 0.84 0.83
0.95 0.88 0.79 0.76 0.76 0.69 0.65 0.72 0.80 0.88 0.98 0.94 0.75 0.63 0.54 0.61 0.69 0.64 0.54 0.48 0.50 0.50 0.53 0.59 0.66 0.72 0.76 0.73 0.72 0.73 0.75 0.77 0.70 0.68 0.71 0.72 0.66 0.67 0.67 0.72 0.78 0.84 0.85
0.80 0.66 0.63 0.69 0.70 0.67 0.66 0.70 0.79 0.88 0.95 0.93 0.82 0.69 0.57 0.60 0.68 0.66 0.56 0.53 0.52 0.49 0.47 0.53 0.60 0.65 0.69 0.70 0.75 0.77 0.74 0.78 0.77 0.69 0.70 0.75 0.67 0.64 0.63 0.62 0.69 0.71 0.69
0.69 0.55 0.45 0.50 0.60 0.64 0.68 0.74 0.84 0.91 0.94 0.86 0.73 0.58 0.48 0.45 0.55 0.55 0.56 0.56 0.53 0.51 0.50 0.50 0.54 0.58 0.59 0.63 0.69 0.72 0.72 0.75 0.76 0.68 0.66 0.72 0.67 0.65 0.65 0.61 0.62 0.68 0.67
0.65 0.54 0.45 0.46 0.52 0.57 0.66 0.78 0.86 0.86 0.81 0.74 0.66 0.56 0.50 0.47 0.52 0.53 0.57 0.55 0.51 0.48 0.44 0.43 0.45 0.50 0.52 0.54 0.57 0.61 0.65 0.65 0.67 0.65 0.63 0.66 0.68 0.64 0.65 0.64 0.61 0.67 0.71
0.58 0.45 0.37 0.37 0.40 0.44 0.56 0.73 0.78 0.72 0.63 0.60 0.58 0.54 0.53 0.52 0.50 0.52 0.54 0.52 0.49 0.44 0.39 0.39 0.41 0.44 0.49 0.47 0.45 0.48 0.54 0.54 0.51 0.53 0.60 0.61 0.64 0.64 0.63 0.64 0.62 0.61 0.66
0.51 0.38 0.28 0.25 0.29 0.38 0.52 0.68 0.68 0.58 0.52 0.52 0.49 0.49 0.47 0.46 0.44 0.45 0.47 0.47 0.45 0.43 0.41 0.41 0.41 0.39 0.41 0.45 0.43 0.40 0.41 0.38 0.38 0.45 0.52 0.56 0.60 0.66 0.63 0.61 0.64 0.59 0.63
0.48 0.39 0.30 0.25 0.28 0.39 0.55 0.64 0.56 0.47 0.44 0.42 0.38 0.41 0.41 0.41 0.40 0.41 0.42 0.43 0.41 0.42 0.41 0.38 0.38 0.38 0.35 0.34 0.35 0.33 0.30 0.25 0.28 0.37 0.48 0.56 0.58 0.64 0.63 0.58 0.62 0.63 0.61
0.44 0.40 0.34 0.30 0.33 0.44 0.54 0.56 0.48 0.43 0.42 0.38 0.37 0.37 0.38 0.38 0.37 0.37 0.38 0.38 0.38 0.38 0.32 0.29 0.28 0.29 0.29 0.27 0.22 0.18 0.16 0.17 0.20 0.27 0.38 0.49 0.57 0.61 0.62 0.62 0.62 0.65 0.61